Location: Evergreen Manor
(41.4083°N, 81.4939°W)
Time: 07:57:28
(UTC+00:00)

CZ-4C R/B - Pass Details

Date: 11 December 2019
Orbit: 646 x 1355 km, 63.4° (Epoch: 20 January)

Event Time Altitude Azimuth Distance (km) Brightness Sun altitude
Exits shadow 09:37:09 87° 116° (ESE) 1,260 2.9 -33.7°
Drops below altitude 10° 09:45:21 10° 147° (SSE) 3,371 5.7 -32.2°
Sets 09:48:18 0° 147° (SSE) 4,364 6.4 -31.6°
